Location: Bouillancy
(49.1149°N, 2.9308°E)
Time: 07:49:33
(UTC+00:00)

Cosmos 2285 Rocket - Pass Details

Date: 30 September 2020
Orbit: 970 x 1000 km, 74.0° (Epoch: 29 October)

Event Time Altitude Azimuth Distance (km) Brightness Sun altitude
Rises 18:05:49 0° 194° (SSW) 3,658 7.1 -7.0°
Reaches altitude 10° 18:08:20 10° 192° (SSW) 2,718 6.5 -7.4°
Maximum altitude 18:14:36 72° 110° (ESE) 1,030 4.0 -8.4°
Drops below altitude 10° 18:20:58 10° 27° (NNE) 2,757 6.2 -9.4°
Sets 18:23:32 0° 25° (NNE) 3,713 6.8 -9.8°
